,,,PA_Meas_PMT16A,,PR_Meas_QMR101_102,,RH_Meas_QMH101,,SR_Meas_QMS101,,TA_Meas_QMH101,,GenWind,,GenWind,
date,time,status,PA,status,PR,status,RH,status,SR,status,TA,status,DirAvg,status,SpdAvg,
2011-02-08, 00:00:04,VALID,1002.27,VALID,0,INVALID,163.716,VALID,0.100563,VALID,23.8751,VALID,1,VALID,0.469922,
2011-02-08, 00:01:04,VALID,1002.24,VALID,0,INVALID,163.723,VALID,0.100563,VALID,23.8964,VALID,1,VALID,0.574219,
2011-02-08, 00:02:04,VALID,1002.25,VALID,0,INVALID,163.701,VALID,0,VALID,23.8751,VALID,10,VALID,0.421094,
2011-02-08, 00:03:04,VALID,1002.24,VALID,0,INVALID,163.723,VALID,0,VALID,23.8964,VALID,10,VALID,0.640234,
2011-02-08, 00:04:04,VALID,1002.25,VALID,0,INVALID,163.716,VALID,0.100563,VALID,23.8769,VALID,10,VALID,0.603125,
2011-02-08, 00:05:04,VALID,1002.22,VALID,0,INVALID,163.731,VALID,0,VALID,23.8556,VALID,10,VALID,0.51875,
2011-02-08, 00:06:04,VALID,1002.24,VALID,0,INVALID,163.731,VALID,0,VALID,23.8362,VALID,10,VALID,0.588281,
2011-02-08, 00:07:04,VALID,1002.24,VALID,0,INVALID,163.731,VALID,0,VALID,23.8556,VALID,10,VALID,0.51875,
2011-02-08, 00:08:04,VALID,1002.24,VALID,0,INVALID,163.739,VALID,0.100563,VALID,23.8362,VALID,10,VALID,0.621484,
2011-02-08, 00:09:04,VALID,1002.26,VALID,0,INVALID,163.731,VALID,0,VALID,23.8575,VALID,10,VALID,0.558203,
2011-02-08, 00:10:04,VALID,1002.24,VALID,0,INVALID,163.716,VALID,0.100563,VALID,23.838,VALID,10,VALID,0.462109,
2011-02-08, 00:11:04,VALID,1002.25,VALID,0,INVALID,163.746,VALID,0,VALID,23.838,VALID,10,VALID,0.561328,
2011-02-08, 00:12:04,VALID,1002.28,VALID,0,INVALID,163.731,VALID,0,VALID,23.838,VALID,10,VALID,0.778125,
2011-02-08, 00:13:04,VALID,1002.29,VALID,0,INVALID,163.723,VALID,0,VALID,23.8575,VALID,18,VALID,0.472266,
2011-02-08, 00:14:04,VALID,1002.29,VALID,0,INVALID,163.762,VALID,0,VALID,23.8769,VALID,18,VALID,0.472266,
2011-02-08, 00:15:04,VALID,1002.32,VALID,0,INVALID,163.708,VALID,0,VALID,23.9159,VALID,18,VALID,0.441797,
2011-02-08, 00:16:04,VALID,1002.3,VALID,0,INVALID,163.701,VALID,0,VALID,23.8946,VALID,18,VALID,0.395703,
2011-02-08, 00:17:04,VALID,1002.3,VALID,0,INVALID,163.693,VALID,0,VALID,23.9353,VALID,18,VALID,0.426172,
2011-02-08, 00:18:04,VALID,1002.31,VALID,0,INVALID,163.693,VALID,0,VALID,23.9566,VALID,18,VALID,0.262109,
2011-02-08, 00:19:04,VALID,1002.32,VALID,0,INVALID,163.716,VALID,0,VALID,23.9548,VALID,18,VALID,0.380859,
2011-02-08, 00:20:04,VALID,1002.33,VALID,0,INVALID,163.716,VALID,0,VALID,23.9566,VALID,18,VALID,0.370313,
2011-02-08, 00:21:04,VALID,1002.34,VALID,0,INVALID,163.716,VALID,0,VALID,23.9548,VALID,18,VALID,0.280859,
2011-02-08, 00:22:04,VALID,1002.34,VALID,0,INVALID,163.701,VALID,0,VALID,23.9548,VALID,18,VALID,0.282031,
2011-02-08, 00:23:04,VALID,1002.33,VALID,0,INVALID,163.723,VALID,0,VALID,23.9548,VALID,18,VALID,0.147266,
2011-02-08, 00:24:04,VALID,1002.35,VALID,0,INVALID,163.716,VALID,0,VALID,23.9353,VALID,18,VALID,0.0617188,
2011-02-08, 00:25:04,VALID,1002.3,VALID,0,INVALID,163.708,VALID,0,VALID,23.9548,VALID,18,VALID,0,
2011-02-08, 00:26:04,VALID,1002.29,VALID,0,INVALID,163.708,VALID,0,VALID,23.9548,VALID,18,VALID,0.197656,
2011-02-08, 00:27:04,VALID,1002.3,VALID,0,INVALID,163.716,VALID,0,VALID,23.914,VALID,18,VALID,0.269141,
2011-02-08, 00:28:04,VALID,1002.27,VALID,0,INVALID,163.716,VALID,0,VALID,23.9353,VALID,18,VALID,0.603125,
2011-02-08, 00:29:04,VALID,1002.25,VALID,0,INVALID,163.731,VALID,0,VALID,23.9159,VALID,18,VALID,0.51875,
2011-02-08, 00:30:04,VALID,1002.26,VALID,0,INVALID,163.731,VALID,0,VALID,23.9159,VALID,18,VALID,0.401172,
2011-02-08, 00:31:04,VALID,1002.25,VALID,0,INVALID,163.739,VALID,0,VALID,23.8964,VALID,18,VALID,0.489453,
2011-02-08, 00:32:04,VALID,1002.21,VALID,0,INVALID,163.739,VALID,0,VALID,23.8769,VALID,18,VALID,0.451562,
2011-02-08, 00:33:04,VALID,1002.22,VALID,0,INVALID,163.731,VALID,0,VALID,23.8769,VALID,16,VALID,0.486719,
2011-02-08, 00:34:04,VALID,1002.16,VALID,0,INVALID,163.723,VALID,0,VALID,23.8575,VALID,16,VALID,0.337891,
2011-02-08, 00:35:04,VALID,1002.17,VALID,0,INVALID,163.716,VALID,0,VALID,23.8167,VALID,16,VALID,0.472656,
2011-02-08, 00:36:04,VALID,1002.14,VALID,0,INVALID,163.723,VALID,0,VALID,23.838,VALID,16,VALID,0.448828,
2011-02-08, 00:37:04,VALID,1002.15,VALID,0,INVALID,163.701,VALID,0,VALID,23.8185,VALID,16,VALID,0.480859,
2011-02-08, 00:38:04,VALID,1002.12,VALID,0,INVALID,163.731,VALID,0,VALID,23.7796,VALID,15,VALID,0.472266,
2011-02-08, 00:39:04,VALID,1002.1,VALID,0,INVALID,163.731,VALID,0.100563,VALID,23.7601,VALID,14,VALID,0.522266,
2011-02-08, 00:40:04,VALID,1002.1,VALID,0,INVALID,163.746,VALID,0,VALID,23.7212,VALID,12,VALID,0.584766,
2011-02-08, 00:41:04,VALID,1002.09,VALID,0,INVALID,163.746,VALID,0,VALID,23.7017,VALID,10,VALID,0.592188,
2011-02-08, 00:42:04,VALID,1002.06,VALID,0,INVALID,163.731,VALID,0,VALID,23.661,VALID,6,VALID,0.623828,
2011-02-08, 00:43:04,VALID,1002.05,VALID,0,INVALID,163.754,VALID,0,VALID,23.6628,VALID,6,VALID,0.672656,
2011-02-08, 00:44:04,VALID,1001.99,VALID,0,INVALID,163.762,VALID,0,VALID,23.6416,VALID,6,VALID,0.630469,
2011-02-08, 00:45:04,VALID,1002,VALID,0,INVALID,163.723,VALID,0,VALID,23.6628,VALID,360,VALID,0.639844,
2011-02-08, 00:46:04,VALID,1001.98,VALID,0,INVALID,163.716,VALID,0,VALID,23.6646,VALID,360,VALID,0.631641,
2011-02-08, 00:47:04,VALID,1001.92,VALID,0,INVALID,163.723,VALID,0,VALID,23.6239,VALID,360,VALID,0.683203,
2011-02-08, 00:48:04,VALID,1001.92,VALID,0,INVALID,163.754,VALID,0.100563,VALID,23.6044,VALID,360,VALID,0.598437,
2011-02-08, 00:49:04,VALID,1001.92,VALID,0,INVALID,163.739,VALID,0,VALID,23.6044,VALID,360,VALID,0.720703,
2011-02-08, 00:50:04,VALID,1001.92,VALID,0,INVALID,163.708,VALID,0,VALID,23.5637,VALID,360,VALID,0.578516,
2011-02-08, 00:51:04,VALID,1001.92,VALID,0,INVALID,163.739,VALID,0,VALID,23.5655,VALID,360,VALID,0.630859,
2011-02-08, 00:52:04,VALID,1001.91,VALID,0,INVALID,163.769,VALID,0,VALID,23.5868,VALID,360,VALID,0.547266,
2011-02-08, 00:53:04,VALID,1001.91,VALID,0,INVALID,163.731,VALID,0,VALID,23.5655,VALID,360,VALID,0.510547,
2011-02-08, 00:54:04,VALID,1001.89,VALID,0,INVALID,163.739,VALID,0,VALID,23.546,VALID,360,VALID,0.505859,
2011-02-08, 00:55:04,VALID,1001.9,VALID,0,INVALID,163.777,VALID,0,VALID,23.5266,VALID,360,VALID,0.403906,
2011-02-08, 00:56:04,VALID,1001.88,VALID,0,INVALID,163.731,VALID,0,VALID,23.5266,VALID,360,VALID,0.510938,
2011-02-08, 00:57:04,VALID,1001.86,VALID,0,INVALID,163.784,VALID,0.100563,VALID,23.5071,VALID,360,VALID,0.587109,
2011-02-08, 00:58:04,VALID,1001.84,VALID,0,INVALID,163.746,VALID,0,VALID,23.5071,VALID,360,VALID,0.532031,
2011-02-08, 00:59:04,VALID,1001.86,VALID,0,INVALID,163.754,VALID,0,VALID,23.5071,VALID,1,VALID,0.618359,
2011-02-08, 01:00:04,VALID,1001.84,VALID,0,INVALID,163.746,VALID,0,VALID,23.4664,VALID,1,VALID,0.632813,
2011-02-08, 01:01:04,VALID,1001.82,VALID,0,INVALID,163.769,VALID,0,VALID,23.4877,VALID,1,VALID,0.535937,
2011-02-08, 01:02:04,VALID,1001.81,VALID,0,INVALID,163.754,VALID,0,VALID,23.4682,VALID,1,VALID,0.526563,
2011-02-08, 01:03:04,VALID,1001.81,VALID,0,INVALID,163.739,VALID,0,VALID,23.4877,VALID,1,VALID,0.559766,
2011-02-08, 01:04:04,VALID,1001.79,VALID,0,INVALID,163.762,VALID,0,VALID,23.447,VALID,1,VALID,0.545313,
2011-02-08, 01:05:04,VALID,1001.78,VALID,0,INVALID,163.769,VALID,0,VALID,23.4682,VALID,1,VALID,0.555078,
2011-02-08, 01:06:04,VALID,1001.75,VALID,0,INVALID,163.762,VALID,0,VALID,23.4877,VALID,1,VALID,0.407422,
2011-02-08, 01:07:04,VALID,1001.73,VALID,0,INVALID,163.762,VALID,0,VALID,23.4275,VALID,1,VALID,0.468359,
2011-02-08, 01:08:04,VALID,1001.71,VALID,0,INVALID,163.746,VALID,0,VALID,23.4682,VALID,1,VALID,0.519531,
2011-02-08, 01:09:04,VALID,1001.7,VALID,0,INVALID,163.754,VALID,0,VALID,23.4487,VALID,1,VALID,0.539063,
2011-02-08, 01:10:04,VALID,1001.69,VALID,0,INVALID,163.739,VALID,0,VALID,23.4293,VALID,360,VALID,0.512109,
2011-02-08, 01:11:04,VALID,1001.7,VALID,0,INVALID,163.762,VALID,0,VALID,23.4293,VALID,360,VALID,0.496094,
2011-02-08, 01:12:04,VALID,1001.67,VALID,0,INVALID,163.762,VALID,0,VALID,23.4098,VALID,360,VALID,0.492578,
2011-02-08, 01:13:04,VALID,1001.68,VALID,0,INVALID,163.769,VALID,0,VALID,23.4098,VALID,360,VALID,0.462891,
2011-02-08, 01:14:04,VALID,1001.65,VALID,0,INVALID,163.754,VALID,0,VALID,23.4098,VALID,360,VALID,0.48125,
2011-02-08, 01:15:04,VALID,1001.65,VALID,0,INVALID,163.769,VALID,0,VALID,23.3497,VALID,1,VALID,0.451562,
2011-02-08, 01:16:04,VALID,1001.61,VALID,0,INVALID,163.754,VALID,0,VALID,23.3709,VALID,1,VALID,0.500781,
2011-02-08, 01:17:04,VALID,1001.62,VALID,0,INVALID,163.762,VALID,0,VALID,23.3709,VALID,8,VALID,0.680859,
2011-02-08, 01:18:04,VALID,1001.6,VALID,0,INVALID,163.777,VALID,0,VALID,23.3514,VALID,8,VALID,0.627734,
2011-02-08, 01:19:04,VALID,1001.59,VALID,0,INVALID,163.777,VALID,0,VALID,23.3709,VALID,8,VALID,0.789063,
2011-02-08, 01:20:04,VALID,1001.6,VALID,0,INVALID,163.769,VALID,0,VALID,23.3514,VALID,10,VALID,0.691797,
2011-02-08, 01:21:04,VALID,1001.61,VALID,0,INVALID,163.723,VALID,0,VALID,23.3709,VALID,10,VALID,0.50625,
2011-02-08, 01:22:04,VALID,1001.6,VALID,0,INVALID,163.777,VALID,0,VALID,23.4116,VALID,10,VALID,0.257422,
2011-02-08, 01:23:04,VALID,1001.6,VALID,0,INVALID,163.784,VALID,0,VALID,23.3904,VALID,10,VALID,0.388281,
2011-02-08, 01:24:04,VALID,1001.58,VALID,0,INVALID,163.754,VALID,0,VALID,23.3302,VALID,10,VALID,0.41875,
2011-02-08, 01:25:04,VALID,1001.59,VALID,0,INVALID,163.762,VALID,0,VALID,23.3727,VALID,10,VALID,0.403906,
2011-02-08, 01:26:04,VALID,1001.58,VALID,0,INVALID,163.746,VALID,0,VALID,23.3709,VALID,10,VALID,0.501562,
2011-02-08, 01:27:04,VALID,1001.57,VALID,0,INVALID,163.769,VALID,0,VALID,23.3514,VALID,10,VALID,0.557031,
2011-02-08, 01:28:04,VALID,1001.56,VALID,0,INVALID,163.777,VALID,0,VALID,23.3514,VALID,10,VALID,0.689062,
2011-02-08, 01:29:04,VALID,1001.52,VALID,0,INVALID,163.762,VALID,0,VALID,23.3497,VALID,10,VALID,0.440234,
2011-02-08, 01:30:04,VALID,1001.51,VALID,0,INVALID,163.784,VALID,0.100563,VALID,23.3497,VALID,4,VALID,0.71875,
2011-02-08, 01:31:04,VALID,1001.51,VALID,0,INVALID,163.762,VALID,0,VALID,23.3302,VALID,3,VALID,0.708203,
2011-02-08, 01:32:04,VALID,1001.49,VALID,0,INVALID,163.792,VALID,0,VALID,23.332,VALID,3,VALID,0.578516,
2011-02-08, 01:33:04,VALID,1001.5,VALID,0,INVALID,163.739,VALID,0,VALID,23.332,VALID,3,VALID,0.507031,
2011-02-08, 01:34:04,VALID,1001.5,VALID,0,INVALID,163.769,VALID,0,VALID,23.2718,VALID,3,VALID,0.55,
2011-02-08, 01:35:04,VALID,1001.49,VALID,0,INVALID,163.762,VALID,0,VALID,23.2736,VALID,3,VALID,0.571094,
2011-02-08, 01:36:04,VALID,1001.49,VALID,0,INVALID,163.746,VALID,0,VALID,23.2736,VALID,3,VALID,0.518359,
2011-02-08, 01:37:04,VALID,1001.48,VALID,0,INVALID,163.769,VALID,0,VALID,23.2541,VALID,3,VALID,0.630078,
2011-02-08, 01:38:04,VALID,1001.47,VALID,0,INVALID,163.769,VALID,0,VALID,23.2541,VALID,3,VALID,0.577734,
2011-02-08, 01:39:04,VALID,1001.49,VALID,0,INVALID,163.784,VALID,0,VALID,23.2718,VALID,8,VALID,0.534766,
2011-02-08, 01:40:04,VALID,1001.48,VALID,0,INVALID,163.769,VALID,0,VALID,23.2736,VALID,8,VALID,0.572656,
2011-02-08, 01:41:04,VALID,1001.48,VALID,0,INVALID,163.777,VALID,0,VALID,23.2524,VALID,8,VALID,0.577734,
2011-02-08, 01:42:04,VALID,1001.47,VALID,0,INVALID,163.739,VALID,0,VALID,23.2736,VALID,8,VALID,0.484766,
2011-02-08, 01:43:04,VALID,1001.47,VALID,0,INVALID,163.784,VALID,0,VALID,23.2541,VALID,8,VALID,0.414453,
2011-02-08, 01:44:04,VALID,1001.44,VALID,0,INVALID,163.769,VALID,0,VALID,23.2347,VALID,8,VALID,0.533984,
2011-02-08, 01:45:04,VALID,1001.44,VALID,0,INVALID,163.792,VALID,0,VALID,23.2347,VALID,8,VALID,0.528516,
2011-02-08, 01:46:04,VALID,1001.41,VALID,0,INVALID,163.784,VALID,0,VALID,23.2364,VALID,8,VALID,0.525781,
2011-02-08, 01:47:04,VALID,1001.38,VALID,0,INVALID,163.769,VALID,0,VALID,23.194,VALID,8,VALID,0.551953,
2011-02-08, 01:48:04,VALID,1001.37,VALID,0,INVALID,163.762,VALID,0,VALID,23.194,VALID,8,VALID,0.717578,
2011-02-08, 01:49:04,VALID,1001.35,VALID,0,INVALID,163.777,VALID,0,VALID,23.2152,VALID,8,VALID,0.569141,
2011-02-08, 01:50:04,VALID,1001.36,VALID,0,INVALID,163.777,VALID,0,VALID,23.194,VALID,8,VALID,0.424219,
2011-02-08, 01:51:04,VALID,1001.35,VALID,0,INVALID,163.777,VALID,0,VALID,23.2152,VALID,8,VALID,0.632422,
2011-02-08, 01:52:04,VALID,1001.34,VALID,0,INVALID,163.777,VALID,0,VALID,23.1551,VALID,8,VALID,0.573047,
2011-02-08, 01:53:04,VALID,1001.34,VALID,0,INVALID,163.754,VALID,0,VALID,23.1374,VALID,6,VALID,0.649609,
2011-02-08, 01:54:04,VALID,1001.35,VALID,0,INVALID,163.769,VALID,0,VALID,23.1374,VALID,360,VALID,0.668359,
2011-02-08, 01:55:04,VALID,1001.3,VALID,0,INVALID,163.769,VALID,0,VALID,23.0772,VALID,360,VALID,0.767187,
2011-02-08, 01:56:04,VALID,1001.3,VALID,0,INVALID,163.777,VALID,0,VALID,23.079,VALID,358,VALID,0.7,
2011-02-08, 01:57:04,VALID,1001.27,VALID,0,INVALID,163.777,VALID,0,VALID,23.0595,VALID,358,VALID,0.642578,
2011-02-08, 01:58:04,VALID,1001.29,VALID,0,INVALID,163.8,VALID,0,VALID,23.0807,VALID,359,VALID,0.717578,
2011-02-08, 01:59:04,VALID,1001.26,VALID,0,INVALID,163.777,VALID,0,VALID,23.0595,VALID,360,VALID,0.837891,
2011-02-08, 02:00:04,VALID,1001.24,VALID,0,INVALID,163.784,VALID,0,VALID,23.0401,VALID,360,VALID,0.721875,
2011-02-08, 02:01:04,VALID,1001.25,VALID,0,INVALID,163.762,VALID,0,VALID,22.9994,VALID,1,VALID,0.694141,
2011-02-08, 02:02:04,VALID,1001.23,VALID,0,INVALID,163.762,VALID,0,VALID,23.0012,VALID,1,VALID,0.728125,
2011-02-08, 02:03:04,VALID,1001.2,VALID,0,INVALID,163.784,VALID,0,VALID,23.0012,VALID,1,VALID,0.610937,
2011-02-08, 02:04:04,VALID,1001.2,VALID,0,INVALID,163.792,VALID,0,VALID,23.0012,VALID,1,VALID,0.615625,
2011-02-08, 02:05:04,VALID,1001.23,VALID,0,INVALID,163.769,VALID,0,VALID,23.0029,VALID,1,VALID,0.572266,
2011-02-08, 02:06:04,VALID,1001.21,VALID,0,INVALID,163.777,VALID,0,VALID,22.9817,VALID,1,VALID,0.518359,
2011-02-08, 02:07:04,VALID,1001.19,VALID,0,INVALID,163.8,VALID,0,VALID,22.941,VALID,1,VALID,0.489062,
2011-02-08, 02:08:04,VALID,1001.19,VALID,0,INVALID,163.792,VALID,0,VALID,22.9428,VALID,1,VALID,0.469531,
2011-02-08, 02:09:04,VALID,1001.19,VALID,0,INVALID,163.807,VALID,0,VALID,22.9428,VALID,1,VALID,0.553125,
2011-02-08, 02:10:04,VALID,1001.19,VALID,0,INVALID,163.777,VALID,0,VALID,22.9233,VALID,1,VALID,0.53125,
2011-02-08, 02:11:04,VALID,1001.16,VALID,0,INVALID,163.815,VALID,0,VALID,22.9428,VALID,1,VALID,0.472656,
2011-02-08, 02:12:04,VALID,1001.15,VALID,0,INVALID,163.784,VALID,0.100563,VALID,22.9428,VALID,1,VALID,0.618359,
2011-02-08, 02:13:04,VALID,1001.16,VALID,0,INVALID,163.807,VALID,0.100563,VALID,22.9021,VALID,1,VALID,0.614453,
2011-02-08, 02:14:04,VALID,1001.13,VALID,0,INVALID,163.8,VALID,0.100563,VALID,22.9039,VALID,1,VALID,0.661719,
2011-02-08, 02:15:04,VALID,1001.12,VALID,0,INVALID,163.8,VALID,0,VALID,22.9251,VALID,1,VALID,0.652734,
2011-02-08, 02:16:04,VALID,1001.08,VALID,0,INVALID,163.807,VALID,0,VALID,22.9251,VALID,1,VALID,0.726172,
2011-02-08, 02:17:04,VALID,1001.08,VALID,0,INVALID,163.784,VALID,0.100563,VALID,22.9039,VALID,1,VALID,0.705469,
2011-02-08, 02:18:04,VALID,1001.07,VALID,0,INVALID,163.823,VALID,0.100563,VALID,22.9039,VALID,1,VALID,0.7125,
2011-02-08, 02:19:04,VALID,1001.06,VALID,0,INVALID,163.823,VALID,0,VALID,22.8632,VALID,1,VALID,0.473828,
2011-02-08, 02:20:04,VALID,1001.08,VALID,0,INVALID,163.8,VALID,0,VALID,22.8844,VALID,1,VALID,0.655859,
2011-02-08, 02:21:04,VALID,1001.05,VALID,0,INVALID,163.8,VALID,0,VALID,22.8844,VALID,3,VALID,0.735937,
2011-02-08, 02:22:04,VALID,1001.07,VALID,0,INVALID,163.777,VALID,0.100563,VALID,22.8844,VALID,3,VALID,0.602344,
2011-02-08, 02:23:04,VALID,1001.04,VALID,0,INVALID,163.777,VALID,0,VALID,22.8844,VALID,3,VALID,0.655078,
2011-02-08, 02:24:04,VALID,1001.05,VALID,0,INVALID,163.792,VALID,0.100563,VALID,22.9039,VALID,3,VALID,0.702344,
2011-02-08, 02:25:04,VALID,1001.05,VALID,0,INVALID,163.83,VALID,0,VALID,22.9039,VALID,3,VALID,0.673047,
2011-02-08, 02:26:04,VALID,1001.06,VALID,0,INVALID,163.769,VALID,0,VALID,22.9251,VALID,3,VALID,0.594922,
2011-02-08, 02:27:04,VALID,1001.05,VALID,0,INVALID,163.8,VALID,0,VALID,22.9251,VALID,3,VALID,0.677734,
2011-02-08, 02:28:04,VALID,1001.04,VALID,0,INVALID,163.792,VALID,0,VALID,22.9251,VALID,3,VALID,0.666406,
2011-02-08, 02:29:04,VALID,1001.02,VALID,0,INVALID,163.792,VALID,0,VALID,22.9233,VALID,360,VALID,0.666406,
2011-02-08, 02:30:04,VALID,1001.02,VALID,0,INVALID,163.8,VALID,0,VALID,22.9852,VALID,360,VALID,0.553516,
2011-02-08, 02:31:04,VALID,1001.02,VALID,0,INVALID,163.8,VALID,0,VALID,22.964,VALID,360,VALID,0.659766,
2011-02-08, 02:32:04,VALID,1001.03,VALID,0,INVALID,163.792,VALID,0,VALID,22.964,VALID,356,VALID,0.633203,
2011-02-08, 02:33:04,VALID,1001.01,VALID,0,INVALID,163.792,VALID,0,VALID,22.9852,VALID,356,VALID,0.711719,
2011-02-08, 02:34:04,VALID,1001,VALID,0,INVALID,163.792,VALID,0,VALID,22.9251,VALID,356,VALID,0.61875,
2011-02-08, 02:35:04,VALID,1001.01,VALID,0,INVALID,163.792,VALID,0,VALID,22.964,VALID,356,VALID,0.578516,
2011-02-08, 02:36:04,VALID,1000.99,VALID,0,INVALID,163.792,VALID,0,VALID,22.9445,VALID,356,VALID,0.508984,
2011-02-08, 02:37:04,VALID,1001.02,VALID,0,INVALID,163.777,VALID,0,VALID,22.9251,VALID,356,VALID,0.355078,
2011-02-08, 02:38:04,VALID,1000.99,VALID,0,INVALID,163.807,VALID,0,VALID,22.9233,VALID,356,VALID,0.393359,
2011-02-08, 02:39:04,VALID,1001,VALID,0,INVALID,163.784,VALID,0,VALID,22.9039,VALID,356,VALID,0.428906,
2011-02-08, 02:40:04,VALID,1000.97,VALID,0,INVALID,163.815,VALID,0,VALID,22.9251,VALID,356,VALID,0.427344,
2011-02-08, 02:41:04,VALID,1000.99,VALID,0,INVALID,163.784,VALID,0,VALID,22.9233,VALID,356,VALID,0.460156,
2011-02-08, 02:42:04,VALID,1000.96,VALID,0,INVALID,163.762,VALID,0,VALID,22.8827,VALID,356,VALID,0.542188,
2011-02-08, 02:43:04,VALID,1000.92,VALID,0,INVALID,163.792,VALID,0,VALID,22.8844,VALID,356,VALID,0.63125,
2011-02-08, 02:44:04,VALID,1000.89,VALID,0,INVALID,163.8,VALID,0,VALID,22.8861,VALID,356,VALID,0.639453,
2011-02-08, 02:45:04,VALID,1000.89,VALID,0,INVALID,163.792,VALID,0,VALID,22.8649,VALID,355,VALID,0.616016,
2011-02-08, 02:46:04,VALID,1000.87,VALID,0,INVALID,163.8,VALID,0,VALID,22.8243,VALID,355,VALID,0.557031,
2011-02-08, 02:47:04,VALID,1000.84,VALID,0,INVALID,163.792,VALID,0.100563,VALID,22.8455,VALID,355,VALID,0.628906,
2011-02-08, 02:48:04,VALID,1000.88,VALID,0,INVALID,163.807,VALID,0,VALID,22.826,VALID,355,VALID,0.577344,
2011-02-08, 02:49:04,VALID,1000.83,VALID,0,INVALID,163.815,VALID,0,VALID,22.8243,VALID,355,VALID,0.535937,
2011-02-08, 02:50:04,VALID,1000.83,VALID,0,INVALID,163.8,VALID,0,VALID,22.8667,VALID,355,VALID,0.646484,
2011-02-08, 02:51:04,VALID,1000.81,VALID,0,INVALID,163.8,VALID,0,VALID,22.826,VALID,355,VALID,0.504297,
2011-02-08, 02:52:04,VALID,1000.8,VALID,0,INVALID,163.8,VALID,0.100563,VALID,22.8048,VALID,355,VALID,0.706641,
2011-02-08, 02:53:04,VALID,1000.81,VALID,0,INVALID,163.792,VALID,0.100563,VALID,22.8048,VALID,355,VALID,0.626172,
2011-02-08, 02:54:04,VALID,1000.8,VALID,0,INVALID,163.8,VALID,0.100563,VALID,22.8048,VALID,355,VALID,0.553906,
2011-02-08, 02:55:04,VALID,1000.79,VALID,0,INVALID,163.807,VALID,0.100563,VALID,22.7871,VALID,355,VALID,0.571094,
2011-02-08, 02:56:04,VALID,1000.77,VALID,0,INVALID,163.8,VALID,0,VALID,22.8278,VALID,355,VALID,0.655078,
2011-02-08, 02:57:04,VALID,1000.79,VALID,0,INVALID,163.807,VALID,0,VALID,22.8066,VALID,355,VALID,0.647266,
2011-02-08, 02:58:04,VALID,1000.76,VALID,0,INVALID,163.83,VALID,0,VALID,22.7854,VALID,355,VALID,0.651563,
2011-02-08, 02:59:04,VALID,1000.74,VALID,0,INVALID,163.815,VALID,0,VALID,22.7871,VALID,355,VALID,0.703906,
2011-02-08, 03:00:04,VALID,1000.73,VALID,0,INVALID,163.784,VALID,0,VALID,22.8066,VALID,355,VALID,0.630469,
2011-02-08, 03:01:04,VALID,1000.74,VALID,0,INVALID,163.784,VALID,0,VALID,22.8066,VALID,355,VALID,0.467969,
2011-02-08, 03:02:04,VALID,1000.69,VALID,0,INVALID,163.792,VALID,0,VALID,22.8066,VALID,355,VALID,0.431641,
2011-02-08, 03:03:04,VALID,1000.68,VALID,0,INVALID,163.8,VALID,0,VALID,22.7871,VALID,355,VALID,0.553906,
2011-02-08, 03:04:04,VALID,1000.65,VALID,0,INVALID,163.823,VALID,0,VALID,22.7677,VALID,355,VALID,0.532422,
2011-02-08, 03:05:04,VALID,1000.64,VALID,0,INVALID,163.83,VALID,0,VALID,22.7694,VALID,355,VALID,0.612891,
2011-02-08, 03:06:04,VALID,1000.62,VALID,0,INVALID,163.8,VALID,0,VALID,22.7677,VALID,355,VALID,0.583203,
2011-02-08, 03:07:04,VALID,1000.64,VALID,0,INVALID,163.792,VALID,0,VALID,22.7499,VALID,355,VALID,0.660156,
2011-02-08, 03:08:04,VALID,1000.59,VALID,0,INVALID,163.8,VALID,0,VALID,22.7287,VALID,355,VALID,0.694922,
2011-02-08, 03:09:04,VALID,1000.57,VALID,0,INVALID,163.823,VALID,0,VALID,22.7093,VALID,355,VALID,0.644141,
2011-02-08, 03:10:04,VALID,1000.53,VALID,0,INVALID,163.8,VALID,0,VALID,22.7093,VALID,355,VALID,0.554688,
2011-02-08, 03:11:04,VALID,1000.55,VALID,0,INVALID,163.792,VALID,0,VALID,22.7322,VALID,355,VALID,0.530078,
2011-02-08, 03:12:04,VALID,1000.54,VALID,0,INVALID,163.83,VALID,0,VALID,22.6686,VALID,355,VALID,0.479297,
2011-02-08, 03:13:04,VALID,1000.56,VALID,0,INVALID,163.823,VALID,0,VALID,22.6898,VALID,3,VALID,0.69375,
2011-02-08, 03:14:04,VALID,1000.53,VALID,0,INVALID,163.815,VALID,0,VALID,22.6686,VALID,7,VALID,0.616016,
2011-02-08, 03:15:04,VALID,1000.54,VALID,0,INVALID,163.815,VALID,0,VALID,22.7093,VALID,7,VALID,0.667188,
2011-02-08, 03:16:04,VALID,1000.53,VALID,0,INVALID,163.815,VALID,0,VALID,22.6898,VALID,7,VALID,0.754297,
2011-02-08, 03:17:04,VALID,1000.52,VALID,0,INVALID,163.83,VALID,0,VALID,22.711,VALID,7,VALID,0.692969,
2011-02-08, 03:18:04,VALID,1000.47,VALID,0,INVALID,163.815,VALID,0,VALID,22.6898,VALID,7,VALID,0.534766,
2011-02-08, 03:19:04,VALID,1000.44,VALID,0,INVALID,163.807,VALID,0,VALID,22.6898,VALID,5,VALID,0.683203,
2011-02-08, 03:20:04,VALID,1000.42,VALID,0,INVALID,163.8,VALID,0,VALID,22.6915,VALID,5,VALID,0.563281,
2011-02-08, 03:21:04,VALID,1000.4,VALID,0,INVALID,163.823,VALID,0,VALID,22.6509,VALID,1,VALID,0.486328,
2011-02-08, 03:22:04,VALID,1000.43,VALID,0,INVALID,163.823,VALID,0,VALID,22.6509,VALID,360,VALID,0.499219,
2011-02-08, 03:23:04,VALID,1000.4,VALID,0,INVALID,163.83,VALID,0,VALID,22.6509,VALID,360,VALID,0.552734,
2011-02-08, 03:24:04,VALID,1000.37,VALID,0,INVALID,163.83,VALID,0,VALID,22.6509,VALID,360,VALID,0.619922,
2011-02-08, 03:25:04,VALID,1000.36,VALID,0,INVALID,163.815,VALID,0,VALID,22.6315,VALID,360,VALID,0.437891,
2011-02-08, 03:26:04,VALID,1000.36,VALID,0,INVALID,163.83,VALID,0,VALID,22.6509,VALID,360,VALID,0.637891,
2011-02-08, 03:27:04,VALID,1000.34,VALID,0,INVALID,163.83,VALID,0,VALID,22.6509,VALID,360,VALID,0.640234,
2011-02-08, 03:28:04,VALID,1000.35,VALID,0,INVALID,163.815,VALID,0,VALID,22.6509,VALID,360,VALID,0.573047,
2011-02-08, 03:29:04,VALID,1000.33,VALID,0,INVALID,163.83,VALID,0,VALID,22.6509,VALID,359,VALID,0.520312,
2011-02-08, 03:30:04,VALID,1000.34,VALID,0,INVALID,163.815,VALID,0,VALID,22.6704,VALID,356,VALID,0.562109,
2011-02-08, 03:31:04,VALID,1000.32,VALID,0,INVALID,163.838,VALID,0,VALID,22.6704,VALID,356,VALID,0.583203,
2011-02-08, 03:32:04,VALID,1000.36,VALID,0,INVALID,163.823,VALID,0,VALID,22.6704,VALID,356,VALID,0.485938,
2011-02-08, 03:33:04,VALID,1000.35,VALID,0,INVALID,163.815,VALID,0,VALID,22.6721,VALID,357,VALID,0.457422,
2011-02-08, 03:34:04,VALID,1000.39,VALID,0,INVALID,163.807,VALID,0,VALID,22.6898,VALID,357,VALID,0.439453,
2011-02-08, 03:35:04,VALID,1000.39,VALID,0,INVALID,163.792,VALID,0,VALID,22.6898,VALID,357,VALID,0.371094,
2011-02-08, 03:36:04,VALID,1000.44,VALID,0,INVALID,163.815,VALID,0,VALID,22.7093,VALID,357,VALID,0.314453,
2011-02-08, 03:37:04,VALID,1000.45,VALID,0,INVALID,163.815,VALID,0,VALID,22.7499,VALID,357,VALID,0.438281,
2011-02-08, 03:38:04,VALID,1000.45,VALID,0,INVALID,163.815,VALID,0,VALID,22.7482,VALID,357,VALID,0.367969,
2011-02-08, 03:39:04,VALID,1000.44,VALID,0,INVALID,163.807,VALID,0,VALID,22.7287,VALID,357,VALID,0.544922,
2011-02-08, 03:40:04,VALID,1000.44,VALID,0,INVALID,163.807,VALID,0,VALID,22.7482,VALID,357,VALID,0.527344,
2011-02-08, 03:41:04,VALID,1000.42,VALID,0,INVALID,163.815,VALID,0,VALID,22.7482,VALID,357,VALID,0.540234,